Regional Weather Roundup
Issued by NWS

Home | Current Version | Previous Version | Text Only | Print | Product List | Glossary Off
Versions: 1 2 3 4 5 6 7 8 9 10 11 12 13 14 15 16 17 18 19 20 21 22 23 24 25 26 27 28 29 30 31 32 33 34 35 36 37 38 39 40 41 42 43 44 45 46 47 48 49 50

000
ASUS43 KLOT 191708
RWRIL

ILLINOIS REGIONAL WEATHER ROUNDUP
NATIONAL WEATHER SERVICE CHICAGO/ROMEOVILLE IL
1100 AM CST SUN NOV 19 2017

NOTE: "FAIR" INDICATES FEW OR NO CLOUDS BELOW 12,000 FEET WITH NO
SIGNIFICANT WEATHER AND/OR OBSTRUCTIONS TO VISIBILITY.

* THESE STATIONS ARE NOT UNDER NWS QUALITY CONTROL. THEY ALSO MAY NOT
  REPORT WEATHER SUCH AS PRECIPITATION OR FOG.

ILZ001-002-007-009-015-016-024-191800-
NORTHWEST ILLINOIS

CITY           SKY/WX    TMP DP  RH WIND       PRES   REMARKS
MOLINE         MOSUNNY   30  13  49 W15       30.17S WCI  19
STERLING*      SUNNY     33  18  53 W13         N/A  WCI  24
SAVANNA*       SUNNY     31  15  52 W12G17    30.13S WCI  22
$$

ILZ003-004-008-010-011-017-018-191800-
NORTH CENTRAL ILLINOIS

CITY           SKY/WX    TMP DP  RH WIND       PRES   REMARKS
ROCKFORD       MOSUNNY   29  15  56 NW22G28   30.11R WCI  15
FREEPORT*      SUNNY     28  16  60 W18       30.12R WCI  16
ROCHELLE*      SUNNY     30  19  63 NW15G22   30.10S WCI  19
DE KALB*       SUNNY     30  19  65 W17G25    30.08R WCI  18
PERU*          SUNNY     29  20  66 W18G24    30.13S WCI  17
$$

ILZ005-006-012>014-019>023-191800-
NORTHEAST ILLINOIS

CITY           SKY/WX    TMP DP  RH WIND       PRES   REMARKS
CHICAGO-OHARE  MOSUNNY   31  19  61 W15       30.04R WCI  20
CHICAGO-MIDWAY MOSUNNY   33  21  61 W16       30.05R WCI  23
AURORA         SUNNY     30  21  69 W16       30.08R WCI  19
LANSING*       MOSUNNY   33  24  69 W12       30.04F WCI  25
JOLIET*        MOSUNNY   32  21  64 W14G20    30.09R WCI  22
WAUKEGAN       MOSUNNY   32  19  58 W9        30.01S WCI  24
DUPAGE AIRPORT MOSUNNY   30  20  66 W14G22    30.06R WCI  19
KANKAKEE*      CLOUDY    32  24  72 W14G22    30.09S WCI  22
WHEELING       MOSUNNY   32  20  61 W13       30.05R WCI  22
MORRIS*        MOSUNNY   31  22  68 W18       30.09R WCI  19
ROMEOVILLE*    PTSUNNY   31  23  73 W14       30.07S WCI  20
NORTHERLY ISL    N/A     33  19  56 W13         N/A  WCI  24
$$

LMZ740>746-191800-
SOUTHERN LAKE MICHIGAN

STATION/POSITION SKY/WX   TEMP    WIND        PRES    VSBY  WAVE
                          AIR SEA DIR/SP/G                  HT/PER
                          (F)     (DEG/KT/KT) (MB)    (MI)  (FT/S)
SOUTHERN BUOY              31 49  320/ 17/ 23 1016.2R         5/ 7
HARRISON CRIB              31     280/ 18/ 20   N/A
BURNHAM HARBOR             33     250/  8/ 14   N/A
CALUMET HARBOR             33     260/  7/ 13 1016.5R
BURNS HARBOR               33     280/ 14/ 19 1017.6R
MICHIGAN CITY              31     270/ 20/ 23   N/A
$$

ILZ025>027-034>036-040-047-049-050-058-095>099-191800-
WEST-CENTRAL ILLINOIS

CITY           SKY/WX    TMP DP  RH WIND       PRES   REMARKS
QUINCY         SUNNY     33  17  51 NW16      30.23R WCI  23
GALESBURG*     MOSUNNY   30  19  63 W15       30.19S WCI  19
MACOMB*        MOSUNNY   31  18  58 NW16      30.23S WCI  20
JACKSONVILLE*  SUNNY     33  17  52 W15       30.22R WCI  22
PITTSFIELD*    SUNNY     34  16  46 W13G18    30.25R WCI  25
$$

ILZ028>032-037-038-041>044-048-051>054-059>061-191800-
CENTRAL ILLINOIS

CITY           SKY/WX    TMP DP  RH WIND       PRES   REMARKS
PONTIAC        SUNNY     31  24  75 W20       30.14R WCI  18
BLOOMINGTON    SUNNY     33  19  56 W22       30.14R WCI  21
DECATUR        SUNNY     32  20  61 NW17      30.17R WCI  21
PEORIA         SUNNY     31  16  54 NW12      30.17R WCI  22
LACON*         SUNNY     31  19  60 NW10G20   30.15S WCI  22
LINCOLN*       SUNNY     32  20  60 NW10G17   30.19R WCI  24
SPRINGFIELD    SUNNY     34  20  56 NW14G21   30.20R WCI  25
TAYLORVILLE    SUNNY     32  19  59 W20       30.19S WCI  20
$$

ILZ033-039-045-046-055>057-062-063-191800-
EAST-CENTRAL ILLINOIS

CITY           SKY/WX    TMP DP  RH WIND       PRES   REMARKS
CHAMPAIGN      MOSUNNY   31  22  69 W15       30.13F WCI  20
DANVILLE*      CLOUDY    29  22  76 W10       30.08F WCI  19
RANTOUL*       PTSUNNY   31  24  76 W15       30.12S WCI  20
MATTOON        MOSUNNY   32  23  69 W15       30.14R WCI  22
PARIS*         CLOUDY    30  25  80 W13G20    30.14S WCI  20
$$

ILZ079-100>102-191800-
SOUTHWEST ILLINOIS

CITY           SKY/WX    TMP DP  RH WIND       PRES   REMARKS
ALTON          SUNNY     36  21  55 NW14      30.23R WCI  27
BELLEVILLE     SUNNY     39  19  45 W12       30.21S WCI  31
CAHOKIA*       SUNNY     38  17  42 NW13      30.24R WCI  30
SPARTA*        SUNNY     36  20  53 W8        30.24S WCI  30
$$

ILZ064>066-069>071-074>076-080>082-084>086-088>090-092>094-191800-
SOUTH-CENTRAL ILLINOIS

CITY           SKY/WX    TMP DP  RH WIND       PRES   REMARKS
CARBONDALE     SUNNY     39  22  50 W13G18    30.23R WCI  31
CAIRO*         SUNNY     40  25  54 NW8       30.24S
EFFINGHAM*     SUNNY     35  23  61 W13G21    30.18S WCI  26
MARION         SUNNY     39  21  48 N12       30.23S WCI  32
MT. VERNON     SUNNY     37  21  52 VRB7      30.21S WCI  32
CENTRALIA*     SUNNY     36  23  59 W14       30.20S WCI  27
SALEM*         SUNNY     37  20  51 NW10      30.20S WCI  29
METROPOLIS*    SUNNY     40  22  48 NW10G16   30.23S
$$

ILZ067-068-072-073-078-083-087-091-191800-
SOUTHEAST ILLINOIS

CITY           SKY/WX    TMP DP  RH WIND       PRES   REMARKS
LAWRENCEVILLE  MOSUNNY   36  24  62 W12       30.17F WCI  28
FLORA*         SUNNY     36  23  58 W15       30.15R WCI  26
FAIRFIELD*     SUNNY     36  20  51 NW5       30.19S WCI  32
HARRISBURG*    SUNNY     38  24  55 NW16G22   30.22S WCI  30
ROBINSON*      PTSUNNY   32  24  72 W14       30.18R WCI  22
CARMI*         SUNNY     37  24  59 NW15G21   30.20R WCI  28
$$

ABBREVIATIONS USED IN REMARKS
   TC - TEMPERATURE IN CELSIUS
  WCI - WIND CHILL INDEX
   HX - HEAT INDEX
  VSB - VISIBILITY
$$





USA.gov is the U.S. government's official web portal to all federal, state and local government web resources and services.